| time (UTC) | temp C | wind direction | speed KPH | gust KPH | rain 1hr cm | rain 24hr cm | rain mn cm | humidity % | barometer mb |
| 20260506071719 | -30 | 0 | 0.0 | 0.0 | 0.00 | 0.86 | 0.00 | 23 | 814.4 |
| 20260506061719 | -30 | 0 | 0.0 | 1.6 | 0.00 | 0.86 | 0.00 | 27 | 814.4 |
| 20260506044719 | -30 | 0 | 0.0 | 0.0 | 0.00 | 0.86 | 0.00 | 76 | 814.4 |
| 20260506041719 | -30 | 0 | 0.0 | 0.0 | 0.00 | 0.86 | 0.00 | 76 | 814.4 |
| 20260506034719 | -30 | 0 | 0.0 | 0.0 | 0.00 | 0.86 | 0.00 | 74 | 814.4 |
| 20260506031719 | -30 | 0 | 0.0 | 0.0 | 0.00 | 0.86 | 0.00 | 74 | 814.4 |
| 20260506024719 | -30 | 0 | 0.0 | 0.0 | 0.05 | 0.86 | 0.00 | 75 | 814.4 |
| 20260506021719 | -30 | 0 | 0.0 | 0.0 | 0.00 | 0.81 | 0.00 | 74 | 814.4 |
| 20260506014720 | -30 | 0 | 0.0 | 0.0 | 0.00 | 0.81 | 0.00 | 74 | 814.4 |
| 20260506011720 | -30 | 0 | 0.0 | 0.0 | 0.00 | 0.81 | 0.00 | 73 | 814.4 |
| 20260506004720 | -30 | 0 | 0.0 | 0.0 | 0.00 | 0.81 | 0.00 | 72 | 814.4 |
| 20260506001720 | -30 | 0 | 0.0 | 0.0 | 0.00 | 0.81 | 0.00 | 73 | 814.4 |
| 20260505234720 | -30 | 0 | 0.0 | 0.0 | 0.05 | 0.81 | 0.00 | 73 | 814.4 |
| 20260505231720 | -30 | 0 | 0.0 | 0.0 | 0.15 | 0.81 | 0.00 | 72 | 814.4 |
| 20260505224720 | -30 | 0 | 0.0 | 0.0 | 0.28 | 0.79 | 0.00 | 68 | 814.4 |
| 20260505221720 | -30 | 0 | 0.0 | 0.0 | 0.18 | 0.69 | 0.00 | 67 | 814.4 |
| 20260505214720 | -30 | 0 | 0.0 | 0.0 | 0.00 | 0.48 | 0.00 | 67 | 814.4 |
| 20260505211720 | -30 | 0 | 0.0 | 0.0 | 0.00 | 0.48 | 0.00 | 65 | 814.4 |
| 20260505204720 | -30 | 0 | 0.0 | 0.0 | 0.00 | 0.48 | 0.00 | 65 | 814.4 |
| 20260505201720 | -30 | 0 | 0.0 | 0.0 | 0.00 | 0.48 | 0.00 | 64 | 814.4 |
| 20260505194720 | -30 | 0 | 0.0 | 0.0 | 0.00 | 0.48 | 0.00 | 63 | 814.4 |
| 20260505191720 | -30 | 0 | 0.0 | 0.0 | 0.00 | 0.48 | 0.00 | 61 | 814.4 |
| 20260505184720 | -30 | 0 | 0.0 | 0.0 | 0.00 | 0.48 | 0.00 | 55 | 814.4 |
| 20260505181720 | -30 | 0 | 0.0 | 0.0 | 0.00 | 0.48 | 0.00 | 46 | 814.4 |
| 20260505174720 | -30 | 0 | 0.0 | 0.0 | 0.05 | 0.48 | 0.00 | 46 | 814.4 |
| 20260505171718 | -30 | 0 | 0.0 | 0.0 | 0.05 | 0.48 | 0.00 | 42 | 814.4 |
| 20260505164718 | -30 | 0 | 0.0 | 0.0 | 0.00 | 0.43 | 0.00 | 41 | 814.4 |
| 20260505161718 | -30 | 0 | 0.0 | 0.0 | 0.10 | 0.43 | 0.00 | 42 | 814.4 |
| 20260505151718 | -30 | 0 | 0.0 | 0.0 | 0.23 | 0.28 | 0.00 | 36 | 814.4 |
| 20260505124718 | -30 | 0 | 0.0 | 0.0 | 0.00 | 0.00 | 0.00 | 20 | 814.4 |
| 20260505121718 | -30 | 0 | 0.0 | 0.0 | 0.00 | 0.00 | 0.00 | 20 | 814.4 |
| 20260505114718 | -30 | 0 | 0.0 | 0.0 | 0.00 | 0.00 | 0.00 | 20 | 814.4 |
| 20260505111718 | -30 | 0 | 0.0 | 0.0 | 0.00 | 0.00 | 0.00 | 20 | 814.4 |
| 20260505101719 | -30 | 0 | 0.0 | 0.0 | 0.00 | 0.00 | 0.00 | 20 | 814.4 |
| 20260505094719 | -30 | 0 | 0.0 | 0.0 | 0.00 | 0.00 | 0.00 | 20 | 814.4 |
| 20260505091719 | -30 | 0 | 0.0 | 0.0 | 0.00 | 0.00 | 0.00 | 20 | 814.4 |
| 20260505084719 | -30 | 0 | 0.0 | 0.0 | 0.00 | 0.00 | 0.00 | 20 | 814.4 |
| 20260505081719 | -30 | 0 | 0.0 | 0.0 | 0.00 | 0.00 | 0.00 | 20 | 814.4 |